User: anonymous   Login
Location: Cimarron National Grasslands
(37.1250°N, 101.7500°W)
Time: 03:29:58
(UTC-05:00)
Language:

Ariane Rocket - Orbit

View from above orbital plane
View from above orbital plane
View from above satellite
View from above satellite

Ground track
Ground track

The orbit data is extracted from the following two-line orbital elements,

1 23561U 95021B   14298.76535824  .00000751  00000-0  26664-3 0  9022
2 23561 098.6999 266.2819 0006216 230.9570 244.1440 14.37359191 22538
Epoch (UTC): 25 October 2014 18:22:06
Eccentricity: 0.0006216
inclination: 98.6999°
perigee height: 763 km
apogee height: 771 km
right ascension of ascending node: 266.2819°
argument of perigee: 230.9570°
revolutions per day: 14.37359191
mean anomaly at epoch: 244.1440°
orbit number at epoch: 2253

The dashed part of the orbit path shows where the satellite is in the earth's shadow,  

DLR